THORAD DELTA 1 DEB, 8394

Orbit data source: Space-Track

THORAD DELTA 1 DEB, 8394 is space debris in SSO originally from a launch on Fri, 15 Nov 1974 UTC launched from the Air Force Western Test Range (AFWTR). Debris objects in space refer to the collection of defunct objects orbiting the Earth. Examples of debris include non-operational satellites, rocket bodies, and fragments generated from explosions, collisions, or faulty payload assembly.

Loading next visibility...
Identifier
8394, 1974-089BW
Orbit
SSO
Country
Flag of USUS
Related business
Manufacturer
Unknown
Mission
Spacecraft
Bus & Motor
Unknown
Mass
Unknown
Launch date (UTC)
1974-11-15 (51 years ago)
Launch vehicle
Unknown
Launch site
Air Force Western Test Range (AFWTR)
Object type
Payload
Rocket body
Debris
Shape & HBR
Unknown shape, 0.1 m
Radar Cross Section
Small (<0.1 m²)

Expand to show TLE details & history
Last TLE update: 23 hours ago

TLE from 23 hours ago
0 THORAD DELTA 1 DEB
1 08394U 74089BW  26061.54509561  .00000021  00000-0  57188-3 0  9997
2 08394 102.0837  83.3543 0174945 135.2781  32.3930 12.20464972926453
Epoch: 2026-03-02T13:04Z
TLE epoch observation values (Epoch: 2026-03-02T13:04:56.260Z)
Latitude
10.94056°
Longitude
-90.857°
Altitude
1,475.273 km
Speed
7.179 km/s
True Right ascension
17h 42m 51s
True Declination
10° 52' 57"
Sunlit
Object was in daylight at epoch
Visualization orbit readout
Latitude
Unknown
Longitude
Unknown
Altitude
Unknown
Speed
Unknown
Apparent Right ascension
Unknown
Apparent Declination
Unknown
Sunlit
N/A
Visualization observer readout
Local Sidereal Time
15:43:17
Azimuth
Unknown
Elevation
Unknown
Doppler factor
Unknown
Orbital elements
Apogee altitude
1,727.487 km
Perigee altitude
1,448.755 km
Semi-major axis
7,966.258 km
Eccentricity
0.01749
Inclination
102.0837°
RAAN
83.3543°
Arg. of periapsis
135.2781°
True anomaly
33.4871°
Mean anomaly
32.393°
Eccentric anomaly
32.93802°
Mean motion
3.05254 °/min
Orbital period
117.93 mins
BSTAR
0.00057188
Loading maneuver chart data...
Computing Atmospheric mass density...

Documentation

Showing up to 5 results
|